Skip Page Navigation
NASA JPL Caltech
NASA Logo - Jet Propulsion Laboratory + View the NASA Portal
+ Near-Earth Object (NEO) Program
Search JPL
JPL Home Earth Solar System Stars & Galaxies Technology
JPL Solar System Dynamics
BODIES ORBITS EPHEMERIDES TOOLS PHYSICAL DATA DISCOVERY FAQ SITE MAP
JPL Small-Body Database Browser
Search: [ help ]  
106537 McCarthy (2000 WB63)
Classification: Main-belt Asteroid          SPK-ID: 2106537
Ephemeris | Orbit Diagram | Orbital Elements | Physical Parameters | Discovery Circumstances ]

[ hide orbit diagram ]
Orbit Diagram
Note: Make sure you have Java enabled on your browser to see the applet. This applet is provided as a 3D orbit visualization tool. The applet was implemented using 2-body methods, and hence should not be used for determining accurate long-term trajectories (over several years or decades) or planetary encounter circumstances. For accurate long-term ephemerides, please instead use our Horizons system.
Orbit Viewer

Additional Notes: the orbits shown in the applet are color coded. The planets are white lines, and the asteroid/comet is a blue line. The bright white line indicates the portion of the orbit that is above the ecliptic plane, and the darker portion is below the ecliptic plane. Likewise for the asteroid/comet orbit, the light blue indicates the portion above the ecliptic plane, and the dark blue the portion below the ecliptic plane.

Orbit Viewer applet originally written and kindly provided by Osamu Ajiki (AstroArts), and further modified by Ron Baalke (JPL).


Orbital Elements at Epoch 2456400.5 (2013-Apr-18.0) TDB
Reference: JPL 1 (heliocentric ecliptic J2000)
 Element Value Uncertainty (1-sigma)   Units 
e .1445549943944442 9.1482e-08  
a 2.310860258830733 3.6874e-08 AU
q 1.976813867069113 2.1732e-07 AU
i 7.764829806686619 1.3567e-05 deg
node 59.87849588535606 7.4118e-05 deg
peri 270.481520724736 9.1292e-05 deg
M 263.8110016341411 6.0131e-05 deg
tp 2456743.332396246987
(2014-Mar-26.83239625)
0.00021828 JED
period 1283.095413671773
3.51
3.0711e-05
8.408e-08
d
yr
n .2805714962146151 6.7155e-09 deg/d
Q 2.644906650592354 4.2204e-08 AU
  Orbit Determination Parameters
   # obs. used (total)      183  
   data-arc span      5093 days (13.94 yr)  
   first obs. used      1999-05-13  
   last obs. used      2013-04-22  
   planetary ephem.      DE405  
   SB-pert. ephem.      SB405-CPV-2  
   condition code      0  
   fit RMS      .71605  
   data source      ORB  
   producer      Otto Matic  
   solution date      2013-Apr-29 18:29:36  

Additional Information
 Earth MOID = .984386 AU 
 T_jup = 3.558 
[ show covariance matrix ]

Ephemeris | Orbit Diagram | Orbital Elements | Physical Parameters | Discovery Circumstances ]

Physical Parameter Table
Parameter Symbol Value Units Sigma Reference Notes
absolute magnitude H 16.7 mag n/a MPC3-M55  

106537 McCarthy           Discovered 2000 Nov. 23 by J. Medkeff at Junk Bond Observatory.
Robynn McCarthy (a.k.a. "Swoopy") produces and co-hosts Skepticality, a podcast talk show that promotes science and skeptical thinking. Her sense of humor and accurate reporting have inspired and informed thousands of listeners.
NOTE: some special characters may not display properly (any characters within {} are an attempt to place the proper accent above a character)
Reference: 20060413/MPCPages.arcLast Updated: 2006-04-17

Alternate Designations
 2000 WB63 = 1999 KY2 
Ephemeris | Orbit Diagram | Orbital Elements | Physical Parameters | Discovery Circumstances ]
ABOUT SSD CREDITS/AWARDS PRIVACY/COPYRIGHT GLOSSARY LINKS
FirstGov 2013-May-24 16:38 UT
(server date/time)  
NASA Home Page
Site Manager:   Donald K. Yeomans
Webmaster  Alan B. Chamberlin